Flock 4h-15

operational
NORAD ID: 66718 Int'l Des: 2025-276 Owner: PLAN Country: US Constellation: planet
LEOCIRCULARRETROGRADESSO

Flock 4h-15について

説明を読み込み中...

リアルタイム位置

3D地球を読み込み中...

次回通過

高度履歴

Altitude vs Time

uPlot chart will show altitude changes over time

軌道要素

1 66718U 25276BE 26073.18978559 .00007585 00000-0 37177-3 0 9993
2 66718 97.4285 148.3253 0003948 10.7039 349.4278 15.18413115 15996
Epoch: Mar 14, 2026 • Age: 10 hours

現在のステータス

高度 516.3 km
速度 7.61 km/s
衛星直下点 48.84°N, 114.07°E
打ち上げ日 Nov 28, 2025
運用期間 0.2 years
タイプ earth observation

技術仕様

分類 Payload
質量 5.70 kg
乾燥質量 5.70 kg
総質量 5.70 kg
長さ 0.30 m
直径 0.10 m
スパン 0.30 m
形状 Box+2 pan
製造者 PLAN
バスタイプ Cubesat 3U
フェーズステータス In Orbit
所有者/国 PLAN/US

大規模コンステレーション

Loading constellations...